This is the latest recevied weather packets stored in our database for station/object IW4EGP-3. If no packets are shown the sender has not sent any weather packets the latest 10 day(s).
| Time | Temp. | Humidity | Pressure | Rain* | Wind** | Luminosity | Snow |
|---|---|---|---|---|---|---|---|
| 1787757731 | 27.78° C | 70% | 1018 hPa | 0 mm | - | - | - |
| 1787756832 | 27.78° C | 69% | 1017.8 hPa | 0 mm | - | - | - |
| 1787755932 | 27.78° C | 65% | 1018 hPa | 0 mm | - | - | - |
| 1787755150 | 27.78° C | 67% | 1017.9 hPa | 0 mm | - | - | - |
| 1787755031 | 27.78° C | 67% | 1017.9 hPa | 0 mm | - | - | - |
| 1787754134 | 28.33° C | 65% | 1017.8 hPa | 0 mm | - | - | - |
| 1787753232 | 28.33° C | 66% | 1018.2 hPa | 0 mm | - | - | - |
| 1787752331 | 28.89° C | 65% | 1018.2 hPa | 0 mm | - | - | - |
| 1787751496 | 28.89° C | 60% | 1018.2 hPa | 0 mm | - | - | - |
| 1787751431 | 28.89° C | 60% | 1018.2 hPa | 0 mm | - | - | - |
| 1787750531 | 28.89° C | 62% | 1018.3 hPa | 0 mm | - | - | - |
| 1787749631 | 28.89° C | 61% | 1018.4 hPa | 0 mm | - | - | - |
| 1787748816 | 30° C | 59% | 1018.5 hPa | 0 mm | - | - | - |
| 1787748731 | 30° C | 59% | 1018.5 hPa | 0 mm | - | - | - |
| 1787747877 | 30° C | 58% | 1018.5 hPa | 0 mm | - | - | - |
| 1787747832 | 30° C | 58% | 1018.5 hPa | 0 mm | - | - | - |
| 1787746932 | 30° C | 57% | 1018.6 hPa | 0 mm | - | - | - |
| 1787746033 | 30° C | 57% | 1018.8 hPa | 0 mm | - | - | - |
| 1787745131 | 30.56° C | 56% | 1018.8 hPa | 0 mm | - | - | - |
| 1787744275 | 30.56° C | 56% | 1019.1 hPa | 0 mm | - | - | - |
| 1787744234 | 30.56° C | 56% | 1019.1 hPa | 0 mm | - | - | - |
| 1787743336 | 30° C | 56% | 1018.9 hPa | 0 mm | - | - | - |
| 1787742433 | 30° C | 56% | 1019.1 hPa | 0 mm | - | - | - |
| 1787741533 | 30° C | 53% | 1018.8 hPa | 0 mm | - | - | - |
| 1787740633 | 30° C | 52% | 1018.8 hPa | 0 mm | - | - | - |
* Rain latest hour (hover to see other rain measurements)
** Current wind speed in m/s (hover to see current wind gust speed)